Stations météo

réclame
Mon MeteoGroup
Catania/Fontanarossa, Italie (16460): Température de l'air & dewpoint: 13.06.2018 02:00:00 - 19.06.2018 02:00:00 (CEST)Catania/Fontanarossa, Italie (16460): Vitesse du vent: 13.06.2018 02:00:00 - 19.06.2018 02:00:00 (CEST)Catania/Fontanarossa, Italie (16460): Direction du vent: 13.06.2018 02:00:00 - 19.06.2018 02:00:00 (CEST)Catania/Fontanarossa, Italie (16460): reduced air pressure: 13.06.2018 02:00:00 - 19.06.2018 02:00:00 (CEST)Catania/Fontanarossa, Italie (16460): visibility: 13.06.2018 02:00:00 - 19.06.2018 02:00:00 (CEST)Catania/Fontanarossa, Italie (16460): Quantités de précipitations: 13.06.2018 02:00:00 - 19.06.2018 02:00:00 (CEST)
Date & Time tt [°C] td [°C] ff [km/h] ff [knt] dd ppp [hPa] vv [km] rr [mm]
19.06.2018 02:00:00 - - - - - - - -
19.06.2018 01:00:00 22,0 20,0 4 2 - - 10 -
19.06.2018 00:00:00 22,0 19,0 8 4 WNW - 10 -
18.06.2018 23:00:00 22,3 20,0 4 2 S 1012,8 10 0,0
18.06.2018 22:00:00 23,0 19,0 5 3 ESE - 10 -
18.06.2018 21:00:00 24,0 19,0 16 9 ENE - 10 -
18.06.2018 20:00:00 24,5 18,2 21 11 E 1011,6 10 -
18.06.2018 19:00:00 26,0 17,0 16 9 E - 10 -
18.06.2018 18:00:00 27,0 16,0 11 6 ENE - 10 -
18.06.2018 17:00:00 25,5 17,1 15 8 NE 1011,7 10 0,0
18.06.2018 16:00:00 27,0 20,0 21 11 E - 10 -
18.06.2018 15:00:00 28,0 18,0 28 15 ENE - 10 -
18.06.2018 14:00:00 27,3 17,3 28 15 ENE 1012,1 10 -
18.06.2018 13:00:00 27,0 19,0 24 13 E - 10 -
18.06.2018 12:00:00 27,0 18,0 21 11 E - 10 -
18.06.2018 11:00:00 26,9 15,3 16 9 E 1012,2 10 0,0
18.06.2018 10:00:00 27,0 15,0 5 3 - - 10 -
18.06.2018 09:00:00 24,0 15,0 8 4 SW - 10 -
18.06.2018 08:00:00 22,1 16,2 8 4 WSW 1012,3 10 -
18.06.2018 07:00:00 17,0 16,0 9 5 WSW - 10 -
18.06.2018 06:00:00 - - - - - - - -
18.06.2018 05:00:00 17,1 15,2 8 4 WSW 1011,9 10 0,0
18.06.2018 04:00:00 18,0 16,0 8 4 WSW - 10 -
18.06.2018 03:00:00 19,0 16,0 9 5 WSW - 10 -
18.06.2018 02:00:00 19,2 17,7 8 4 W 1012,5 10 -
18.06.2018 01:00:00 - - - - - - - -
18.06.2018 00:00:00 21,0 19,0 8 4 W - 10 -
17.06.2018 23:00:00 22,0 19,8 2 1 - 1013,5 10 0,0
17.06.2018 22:00:00 23,0 20,0 2 1 E - 10 -
17.06.2018 21:00:00 23,0 20,0 5 3 E - 10 -
17.06.2018 20:00:00 24,3 19,0 8 4 ESE 1012,4 10 -
17.06.2018 19:00:00 25,0 19,0 11 6 E - 10 -
17.06.2018 18:00:00 26,0 18,0 16 9 E - 10 -
17.06.2018 17:00:00 25,2 18,5 18 10 E 1012,9 10 0,0
17.06.2018 16:00:00 26,0 19,0 18 10 ESE - 10 -
17.06.2018 15:00:00 26,0 20,0 16 9 E - 10 -
17.06.2018 14:00:00 25,4 18,8 18 10 E 1012,9 10 -
17.06.2018 13:00:00 26,0 18,0 26 14 ENE - 10 -
17.06.2018 12:00:00 27,0 15,0 26 14 ENE - 10 -
17.06.2018 11:00:00 26,9 15,3 21 11 ENE 1012,7 10 0,0
17.06.2018 10:00:00 26,0 15,0 5 3 - - 10 -
17.06.2018 09:00:00 24,0 16,0 13 7 WSW - 10 -
17.06.2018 08:00:00 21,4 16,1 15 8 WSW 1012,3 10 -
17.06.2018 07:00:00 18,0 16,0 11 6 WSW - 10 -
17.06.2018 06:00:00 16,0 14,0 8 4 W - 10 -
17.06.2018 05:00:00 16,7 14,8 9 5 W 1011,7 10 0,0
17.06.2018 04:00:00 17,0 14,0 9 5 WSW - 10 -
17.06.2018 03:00:00 18,0 15,0 9 5 WSW - 10 -
17.06.2018 02:00:00 18,9 16,2 2 1 - 1012,0 10 -
17.06.2018 01:00:00 20,0 16,0 2 1 - - 10 -
17.06.2018 00:00:00 20,0 16,0 8 4 W - 10 -
16.06.2018 23:00:00 21,6 15,8 5 3 ENE 1011,7 10 0,0
16.06.2018 22:00:00 23,0 17,0 8 4 ENE - 10 -
16.06.2018 21:00:00 23,0 17,0 5 3 E - 10 -
16.06.2018 20:00:00 24,9 16,2 4 2 E 1010,2 10 -
16.06.2018 19:00:00 25,0 18,0 5 3 E - 10 -
16.06.2018 18:00:00 25,0 18,0 11 6 ESE - 10 -
16.06.2018 17:00:00 24,8 18,8 16 9 ESE 1009,8 10 0,0
16.06.2018 16:00:00 26,0 18,0 21 11 E - 10 -
16.06.2018 15:00:00 26,0 19,0 22 12 E - 10 -
16.06.2018 14:00:00 25,3 18,6 26 14 E 1010,0 10 -
16.06.2018 13:00:00 26,0 18,0 21 11 E - 10 -
16.06.2018 12:00:00 26,0 19,0 15 8 E - 10 -
16.06.2018 11:00:00 25,5 18,4 8 4 SE 1009,7 10 0,0
16.06.2018 10:00:00 24,0 19,0 2 1 - - 10 -
16.06.2018 09:00:00 23,0 19,0 5 3 ESE - 10 -
16.06.2018 08:00:00 21,0 19,0 2 1 - 1010,1 10 -
16.06.2018 07:00:00 17,0 16,0 4 2 - - 10 -
16.06.2018 06:00:00 17,0 16,0 8 4 WSW - 10 -
16.06.2018 05:00:00 17,3 16,2 5 3 WNW 1008,8 10 0,0
16.06.2018 04:00:00 18,0 16,0 5 3 W - 10 -
16.06.2018 03:00:00 19,0 17,0 11 6 W - 10 -
16.06.2018 02:00:00 18,2 16,2 5 3 W 1009,4 10 -
16.06.2018 01:00:00 19,0 17,0 9 5 W - 10 -
16.06.2018 00:00:00 19,0 17,0 2 1 - - 10 -
15.06.2018 23:00:00 19,0 17,8 16 9 WSW 1009,1 8 0,0
15.06.2018 22:00:00 20,0 19,0 11 6 W - 8 -
15.06.2018 21:00:00 22,0 18,0 8 4 N - 8 -
15.06.2018 20:00:00 22,8 15,8 11 6 WSW 1008,1 10 -
15.06.2018 19:00:00 24,0 17,0 2 1 - - 10 -
15.06.2018 18:00:00 24,0 18,0 11 6 NW - 10 -
15.06.2018 17:00:00 22,2 17,1 18 10 W 1007,3 10 0,0
15.06.2018 16:00:00 23,0 17,0 15 8 WSW - 10 -
15.06.2018 15:00:00 24,0 18,0 4 2 - - 10 -
15.06.2018 14:00:00 22,7 18,3 11 6 ENE 1007,5 10 -
15.06.2018 13:00:00 24,0 17,0 18 10 ENE - 10 -
15.06.2018 12:00:00 25,0 17,0 16 9 E - 10 -
15.06.2018 11:00:00 24,8 16,5 15 8 E 1006,3 10 0,0
15.06.2018 10:00:00 25,0 15,0 8 4 ENE - 10 -
15.06.2018 09:00:00 24,0 16,0 5 3 NNW - 10 -
15.06.2018 08:00:00 22,5 15,5 13 7 W 1005,8 10 -
15.06.2018 07:00:00 20,0 16,0 11 6 WSW - 10 -
15.06.2018 06:00:00 18,0 15,0 11 6 W - 10 -
15.06.2018 05:00:00 18,0 15,3 9 5 NW 1005,4 10 0,0
15.06.2018 04:00:00 18,0 15,0 9 5 W - 10 -
15.06.2018 03:00:00 18,0 15,0 8 4 W - 10 -
15.06.2018 02:00:00 18,5 15,7 11 6 W 1006,0 10 -
15.06.2018 01:00:00 19,0 16,0 16 9 W - 10 -
15.06.2018 00:00:00 20,0 18,0 2 1 - - 10 -
14.06.2018 23:00:00 20,2 17,8 4 2 - 1006,5 10 0,0
14.06.2018 22:00:00 20,0 18,0 2 1 - - 10 -
14.06.2018 21:00:00 20,0 18,0 8 4 ENE - 10 -
14.06.2018 20:00:00 21,4 17,8 16 9 E 1005,8 9 -
14.06.2018 19:00:00 22,0 18,0 18 10 E - 10 -
14.06.2018 18:00:00 22,0 19,0 18 10 ENE - 10 -
14.06.2018 17:00:00 21,0 17,5 8 4 - 1004,9 3,0 0,0
14.06.2018 16:00:00 25,0 16,0 11 6 NNE - 10 -
14.06.2018 15:00:00 29,0 12,0 26 14 W - 10 -
14.06.2018 14:00:00 27,3 14,7 24 13 W 1005,2 10 -
14.06.2018 13:00:00 26,0 13,0 26 14 W - 10 -
14.06.2018 12:00:00 27,0 12,0 29 16 W - 10 -
14.06.2018 11:00:00 27,6 11,1 26 14 W 1005,8 10 0,0
14.06.2018 10:00:00 24,0 13,0 28 15 W - 10 -
14.06.2018 09:00:00 24,0 14,0 28 15 W - 10 -
14.06.2018 08:00:00 22,3 13,8 21 11 W 1006,5 10 -
14.06.2018 07:00:00 19,0 13,0 18 10 W - 10 -
14.06.2018 06:00:00 18,0 13,0 15 8 SW - 10 -
14.06.2018 05:00:00 17,5 12,5 11 6 WSW 1006,4 - 0,0
14.06.2018 04:00:00 18,0 12,0 13 7 W - 10 -
14.06.2018 03:00:00 - - - - - - - -
14.06.2018 02:00:00 21,7 12,9 11 6 WNW 1006,9 10 -
14.06.2018 01:00:00 20,0 14,0 15 8 W - 10 -
14.06.2018 00:00:00 21,0 15,0 9 5 WSW - 10 -
13.06.2018 23:00:00 22,1 18,0 8 4 SSW 1007,7 10 0,0
13.06.2018 22:00:00 23,0 18,0 5 3 S - 10 -
13.06.2018 21:00:00 23,0 18,0 8 4 S - 10 -
13.06.2018 20:00:00 23,9 18,6 9 5 ESE 1006,6 10 -
13.06.2018 19:00:00 25,0 19,0 11 6 SE - 10 -
13.06.2018 18:00:00 25,0 18,0 13 7 ENE - 10 -
13.06.2018 17:00:00 25,1 17,6 13 7 ENE 1006,6 10 0,0
13.06.2018 16:00:00 26,0 18,0 18 10 E - 10 -
13.06.2018 15:00:00 26,0 18,0 29 16 ENE - 10 -
13.06.2018 14:00:00 31,8 9,9 22 12 W 1006,6 10 -
13.06.2018 13:00:00 31,0 10,0 22 12 W - 10 -
13.06.2018 12:00:00 28,0 10,0 34 18 WNW - 10 -
13.06.2018 11:00:00 30,8 8,3 31 17 NW 1008,4 10 0,0
13.06.2018 10:00:00 30,0 9,0 15 8 - - 10 -
13.06.2018 09:00:00 27,0 13,0 24 13 W - 10 -
13.06.2018 08:00:00 24,0 18,9 8 4 WSW 1008,3 10 -
13.06.2018 07:00:00 19,0 18,0 5 3 W - 7 -
13.06.2018 06:00:00 19,0 18,0 4 2 - - 8 -
13.06.2018 05:00:00 19,0 17,8 5 3 W 1008,2 10 0,0
13.06.2018 04:00:00 20,0 19,0 2 1 W - 7 -
13.06.2018 03:00:00 21,0 20,0 2 1 - - 10 -
13.06.2018 02:00:00 21,2 19,6 4 2 N 1009,1 10 -

tt = Température de l'air
td = dewpoint
ff = Vitesse du vent
dd = Direction du vent
ppp = reduced air pressure
vv = visibility
rr = Quantités de précipitations

stations d'obs. à proximité